This is the latest recevied weather packets stored in our database for station/object KD4EED. If no packets are shown the sender has not sent any weather packets the latest 10 day(s).
| Time | Temp. | Humidity | Pressure | Rain* | Wind** | Luminosity | Snow |
|---|---|---|---|---|---|---|---|
| 1788639244 | 32.22° C | 43% | 1011 hPa | - | - | 618 W/m² | - |
| 1788638943 | 32.22° C | 43% | 1011.1 hPa | - | - | 617 W/m² | - |
| 1788638639 | 32.22° C | 43% | 1011.1 hPa | - | - | 612 W/m² | - |
| 1788638337 | 32.22° C | 44% | 1011.1 hPa | - | - | 609 W/m² | - |
| 1788638033 | 31.67° C | 45% | 1011.2 hPa | - | - | 603 W/m² | - |
| 1788637728 | 31.67° C | 45% | 1011.3 hPa | - | - | 599 W/m² | - |
| 1788637428 | 31.67° C | 44% | 1011.4 hPa | - | - | 597 W/m² | - |
| 1788637127 | 31.67° C | 44% | 1011.4 hPa | - | - | 592 W/m² | - |
| 1788636822 | 31.67° C | 44% | 1011.3 hPa | - | - | 591 W/m² | - |
| 1788636518 | 31.11° C | 45% | 1011.2 hPa | - | - | 587 W/m² | - |
| 1788636214 | 31.11° C | 45% | 1011.5 hPa | - | - | 583 W/m² | - |
| 1788635913 | 31.11° C | 46% | 1011.4 hPa | - | - | 581 W/m² | - |
| 1788635612 | 31.11° C | 46% | 1011.5 hPa | - | - | 574 W/m² | - |
| 1788635311 | 30.56° C | 46% | 1011.6 hPa | - | - | 568 W/m² | - |
| 1788635005 | 30° C | 48% | 1011.8 hPa | - | - | 567 W/m² | - |
| 1788634704 | 30° C | 48% | 1011.9 hPa | - | - | 567 W/m² | - |
| 1788634399 | 30° C | 49% | 1011.8 hPa | - | - | 565 W/m² | - |
| 1788634098 | 29.44° C | 49% | 1012 hPa | - | - | 560 W/m² | - |
| 1788633798 | 29.44° C | 48% | 1012 hPa | - | - | 555 W/m² | - |
| 1788633496 | 28.89° C | 50% | 1012 hPa | - | - | 551 W/m² | - |
| 1788633192 | 28.33° C | 53% | 1011.9 hPa | - | - | 550 W/m² | - |
| 1788632892 | 28.33° C | 54% | 1012.1 hPa | - | - | 547 W/m² | - |
| 1788632591 | 27.78° C | 55% | 1012.1 hPa | - | - | 543 W/m² | - |
| 1788632287 | 27.78° C | 56% | 1012.2 hPa | - | - | 542 W/m² | - |
| 1788631987 | 27.78° C | 56% | 1012.3 hPa | - | - | 536 W/m² | - |
* Rain since midnight (hover to see other rain measurements)
** Current wind speed in m/s (hover to see current wind gust speed)